This is the latest recevied weather packets stored in our database for station/object vk4zu-13. If no packets are shown the sender has not sent any weather packets the latest 10 day(s).
| Time | Temp. | Humidity | Pressure | Rain* | Wind** | Luminosity | Snow |
|---|---|---|---|---|---|---|---|
| 1778306880 | 22.78° C | 51% | 1021.8 hPa | 0 mm | - | 49 W/m² | - |
| 1778306811 | 22.78° C | 51% | 1021.8 hPa | 0 mm | - | 62 W/m² | - |
| 1778306743 | 22.78° C | 50% | 1021.8 hPa | 0 mm | - | 47 W/m² | - |
| 1778306675 | 22.78° C | 50% | 1021.9 hPa | 0 mm | - | 53 W/m² | - |
| 1778306601 | 22.78° C | 49% | 1021.8 hPa | 0 mm | - | 114 W/m² | - |
| 1778306536 | 22.78° C | 51% | 1021.8 hPa | 0 mm | - | 186 W/m² | - |
| 1778306475 | 22.78° C | 52% | 1021.7 hPa | 0 mm | - | 195 W/m² | - |
| 1778306415 | 22.78° C | 50% | 1021.7 hPa | 0 mm | - | 174 W/m² | - |
| 1778306367 | 22.78° C | 50% | 1021.7 hPa | 0 mm | - | 174 W/m² | - |
| 1778306297 | 22.78° C | 49% | 1021.7 hPa | 0 mm | - | 69 W/m² | - |
| 1778306223 | 22.78° C | 48% | 1021.7 hPa | 0 mm | - | 132 W/m² | - |
| 1778306161 | 22.78° C | 50% | 1021.7 hPa | 0 mm | - | 134 W/m² | - |
| 1778306097 | 23.33° C | 48% | 1021.7 hPa | 0 mm | - | 70 W/m² | - |
| 1778306041 | 23.33° C | 50% | 1021.7 hPa | 0 mm | - | 56 W/m² | - |
| 1778305977 | 23.33° C | 52% | 1021.7 hPa | 0 mm | - | 77 W/m² | - |
| 1778305920 | 23.33° C | 50% | 1021.5 hPa | 0 mm | - | 111 W/m² | - |
| 1778305847 | 23.33° C | 51% | 1021.7 hPa | 0 mm | - | 81 W/m² | - |
| 1778305777 | 23.33° C | 49% | 1021.7 hPa | 0 mm | - | 83 W/m² | - |
| 1778305707 | 23.33° C | 49% | 1021.7 hPa | 0 mm | - | 83 W/m² | - |
| 1778305636 | 23.33° C | 49% | 1021.7 hPa | 0 mm | - | 213 W/m² | - |
| 1778305568 | 23.33° C | 49% | 1021.8 hPa | 0 mm | - | 218 W/m² | - |
| 1778305497 | 23.33° C | 47% | 1021.7 hPa | 0 mm | - | 69 W/m² | - |
| 1778305436 | 23.33° C | 47% | 1021.8 hPa | 0 mm | - | 69 W/m² | - |
| 1778305379 | 23.33° C | 47% | 1021.9 hPa | 0 mm | - | 125 W/m² | - |
| 1778305312 | 23.33° C | 48% | 1021.8 hPa | 0 mm | - | 65 W/m² | - |
* Rain latest hour (hover to see other rain measurements)
** Current wind speed in m/s (hover to see current wind gust speed)